NIMIQ 5

Last updated on Tue Sep 16 2025 00:02:46 GMT+0000 (Coordinated Universal Time)

1 35873U 09050A 25258.57010256 -.00000273 00000+0 00000+0 0 9999 2 35873 0.0176 206.8048 0002710 342.0908 298.4199 1.00270341 58593
UTC large
Height (km)
Speed (km/s)
/
Latitude / Longitude
Inclination (degrees)
Orbital Period (minutes)
Azimuth
Elevation
Range (km)
Doppler Factor

Next 0 passes for location: London (51.5072 / 0.1276)

Sorry there are no passes over London.